TimeMDT,TemperatureF,Dew PointF,Humidity,Sea Level PressureIn,VisibilityMPH,Wind Direction,Wind SpeedMPH,Gust SpeedMPH,PrecipitationIn,Events,Conditions,WindDirDegrees,DateUTC
12:53 AM,33.1,21.0,61,30.35,10.0,Calm,Calm,-,N/A,,Partly Cloudy,0,2012-10-04 06:53:00
1:53 AM,32.0,19.9,61,30.36,10.0,Calm,Calm,-,N/A,,Mostly Cloudy,0,2012-10-04 07:53:00
2:53 AM,30.9,21.0,67,30.36,10.0,Calm,Calm,-,N/A,,Overcast,0,2012-10-04 08:53:00
3:53 AM,30.9,21.0,67,30.35,10.0,Calm,Calm,-,N/A,,Overcast,0,2012-10-04 09:53:00
4:53 AM,28.0,19.9,72,30.35,10.0,SE,4.6,-,N/A,,Clear,140,2012-10-04 10:53:00
5:53 AM,28.0,19.9,72,30.36,10.0,SSE,5.8,-,0.00,,Clear,160,2012-10-04 11:53:00
6:53 AM,28.9,19.9,69,30.35,10.0,Calm,Calm,-,N/A,,Mostly Cloudy,0,2012-10-04 12:53:00
7:53 AM,27.0,18.0,69,30.37,10.0,WNW,3.5,-,N/A,,Clear,290,2012-10-04 13:53:00
8:53 AM,30.0,19.9,66,30.35,10.0,NW,3.5,-,N/A,,Clear,310,2012-10-04 14:53:00
9:53 AM,36.0,23.0,59,30.32,10.0,Variable,3.5,-,N/A,,Clear,0,2012-10-04 15:53:00
10:53 AM,39.9,21.0,47,30.31,10.0,East,6.9,-,N/A,,Clear,80,2012-10-04 16:53:00
11:53 AM,42.1,19.9,41,30.27,10.0,Variable,5.8,-,N/A,,Clear,0,2012-10-04 17:53:00
12:53 PM,45.0,19.9,37,30.25,10.0,SSE,9.2,-,N/A,,Clear,150,2012-10-04 18:53:00
1:53 PM,46.9,19.9,34,30.20,10.0,East,8.1,16.1,0.00,,Scattered Clouds,90,2012-10-04 19:53:00
2:53 PM,48.0,19.9,33,30.17,10.0,SE,8.1,-,N/A,,Clear,130,2012-10-04 20:53:00
3:53 PM,50.0,19.9,31,30.15,10.0,NNE,6.9,-,N/A,,Clear,20,2012-10-04 21:53:00
4:53 PM,48.9,19.9,32,30.16,10.0,North,9.2,-,N/A,,Clear,10,2012-10-04 22:53:00
5:53 PM,46.0,19.0,34,30.18,10.0,NNE,10.4,-,N/A,,Clear,30,2012-10-04 23:53:00
6:53 PM,44.1,19.0,37,30.19,10.0,North,5.8,-,N/A,,Clear,10,2012-10-05 00:53:00
7:53 PM,43.0,19.9,40,30.21,10.0,WNW,3.5,-,N/A,,Clear,300,2012-10-05 01:53:00
8:53 PM,42.1,19.0,40,30.22,10.0,WNW,5.8,-,N/A,,Mostly Cloudy,290,2012-10-05 02:53:00
9:53 PM,41.0,19.9,43,30.21,10.0,NNW,8.1,-,N/A,,Overcast,330,2012-10-05 03:53:00
10:53 PM,39.9,19.0,43,30.22,10.0,North,8.1,-,N/A,,Overcast,10,2012-10-05 04:53:00
11:53 PM,37.0,19.9,50,30.22,10.0,ENE,8.1,-,N/A,,Mostly Cloudy,60,2012-10-05 05:53:00